Location: Jonesport
(44.5330°N, 67.5990°W)
Time: 14:13:23
(UTC-04:00)

Iridium 35 - Visible Passes

Search period start: 22 September 2014 00:00
Search period end: 02 October 2014 00:00
Orbit: 776 x 779 km, 86.4° (Epoch: 21 September)

Date Brightness Start Highest point End Pass type
(mag) Time Alt. Az. Time Alt. Az. Time Alt. Az.
22 Sep 8.0 00:49:45 10° NNE 00:49:45 10° NNE 00:49:46 10° NNE visible
22 Sep 7.5 02:30:13 13° NNW 02:30:13 13° NNW 02:30:53 10° NNW visible
23 Sep 7.7 01:56:57 14° N 01:56:57 14° N 01:57:35 10° N visible
24 Sep 7.9 01:23:40 12° N 01:23:40 12° N 01:24:01 10° N visible
26 Sep 7.9 01:57:34 10° N 01:57:34 10° N 01:57:35 10° N visible
